When you browse on this site, cookies collect data to enhance your experience and personalize the content and advertising you see.
Visit our Privacy Policy to learn more. By continuing to use the site, you agree to this use of cookies and data.
  • In Latvia
  • List of Countries
  • For 7 days
  • Water Temperature
  • Satellite Maps
  • Weather Map
  • Weather Widgets
  • user-avatar
    Login

    Hourly Weather Elenovskoe

    Today, 24 March, Sunday

    Time Temperature Precipitation Wind Pressure Humidity
    00:00 +1°C° 0 mm 3 mps 757 mmHg 71%
    01:00 +1°C° 0 mm 3 mps 757 mmHg 74%
    02:00 0°C° 0 mm 3 mps 757 mmHg 76%
    03:00 0°C° 0 mm 3 mps 757 mmHg 78%
    04:00 0°C° 0.1 mm 4 mps 757 mmHg 77%
    05:00 0°C° 0.1 mm 4 mps 757 mmHg 77%
    06:00 0°C° 0.1 mm 4 mps 758 mmHg 76%
    07:00 +1°C° 0.2 mm 4 mps 758 mmHg 77%
    08:00 +1°C° 0.2 mm 4 mps 758 mmHg 79%
    09:00 +3°C° 0.2 mm 4 mps 758 mmHg 80%
    10:00 +3°C° 0.1 mm 4 mps 758 mmHg 75%
    11:00 +4°C° 0.1 mm 4 mps 758 mmHg 70%
    12:00 +5°C° 0.1 mm 4 mps 758 mmHg 66%
    13:00 +5°C° 0.1 mm 4 mps 758 mmHg 63%
    14:00 +5°C° 0.1 mm 5 mps 758 mmHg 61%
    15:00 +6°C° 0.1 mm 5 mps 758 mmHg 59%
    16:00 +5°C° 0 mm 4 mps 758 mmHg 62%
    17:00 +5°C° 0 mm 4 mps 758 mmHg 65%
    18:00 +4°C° 0 mm 3 mps 758 mmHg 67%
    19:00 +3°C° 0 mm 3 mps 759 mmHg 70%
    20:00 +2°C° 0 mm 3 mps 759 mmHg 73%
    21:00 +2°C° 0 mm 2 mps 760 mmHg 76%
    22:00 +2°C° 0 mm 2 mps 760 mmHg 77%
    23:00 +1°C° 0 mm 2 mps 760 mmHg 78%

    Tomorrow, 25 March, Monday

    Time Temperature Precipitation Wind Pressure Humidity
    00:00 +1°C° 0 mm 2 mps 760 mmHg 79%
    01:00 +1°C° 0 mm 2 mps 759 mmHg 80%
    02:00 -1°C° 0 mm 2 mps 759 mmHg 82%
    03:00 -1°C° 0 mm 2 mps 759 mmHg 83%
    04:00 -1°C° 0 mm 2 mps 759 mmHg 83%
    05:00 -1°C° 0 mm 2 mps 759 mmHg 84%
    06:00 -1°C° 0 mm 2 mps 759 mmHg 84%
    07:00 +2°C° 0 mm 2 mps 759 mmHg 77%
    08:00 +3°C° 0 mm 2 mps 759 mmHg 70%
    09:00 +5°C° 0 mm 2 mps 758 mmHg 63%
    10:00 +6°C° 0 mm 2 mps 758 mmHg 60%
    11:00 +8°C° 0 mm 1 mps 758 mmHg 57%
    12:00 +10°C° 0 mm 1 mps 757 mmHg 53%
    13:00 +10°C° 0 mm 1 mps 757 mmHg 52%
    14:00 +11°C° 0 mm 1 mps 756 mmHg 51%
    15:00 +12°C° 0 mm 1 mps 756 mmHg 50%
    16:00 +11°C° 0 mm 1 mps 756 mmHg 54%
    17:00 +11°C° 0 mm 1 mps 756 mmHg 58%
    18:00 +10°C° 0 mm 1 mps 756 mmHg 62%
    19:00 +9°C° 0 mm 1 mps 756 mmHg 65%
    20:00 +8°C° 0 mm 1 mps 757 mmHg 67%
    21:00 +6°C° 0 mm 2 mps 757 mmHg 70%
    22:00 +5°C° 0 mm 2 mps 757 mmHg 71%
    23:00 +5°C° 0 mm 2 mps 757 mmHg 72%

    Day after tomorrow, 26 March, Tuesday

    Time Temperature Precipitation Wind Pressure Humidity
    00:00 +5°C° 0 mm 2 mps 757 mmHg 74%
    01:00 +4°C° 0 mm 2 mps 757 mmHg 75%
    02:00 +4°C° 0 mm 2 mps 757 mmHg 76%
    03:00 +3°C° 0 mm 2 mps 757 mmHg 77%
    04:00 +3°C° 0 mm 2 mps 757 mmHg 78%
    05:00 +3°C° 0 mm 2 mps 757 mmHg 79%
    06:00 +2°C° 0 mm 2 mps 757 mmHg 80%
    07:00 +4°C° 0 mm 2 mps 757 mmHg 75%
    08:00 +6°C° 0 mm 2 mps 757 mmHg 70%
    09:00 +7°C° 0 mm 2 mps 757 mmHg 65%
    10:00 +9°C° 0 mm 2 mps 757 mmHg 60%
    11:00 +12°C° 0 mm 2 mps 756 mmHg 55%
    12:00 +13°C° 0 mm 2 mps 756 mmHg 50%
    13:00 +14°C° 0 mm 1 mps 755 mmHg 47%
    14:00 +15°C° 0 mm 1 mps 755 mmHg 45%
    15:00 +16°C° 0 mm 1 mps 755 mmHg 43%
    16:00 +15°C° 0 mm 1 mps 755 mmHg 46%
    17:00 +14°C° 0 mm 1 mps 754 mmHg 50%
    18:00 +14°C° 0 mm 1 mps 754 mmHg 54%
    19:00 +12°C° 0 mm 1 mps 755 mmHg 56%
    20:00 +11°C° 0 mm 1 mps 755 mmHg 58%
    21:00 +9°C° 0 mm 2 mps 755 mmHg 60%
    22:00 +8°C° 0 mm 2 mps 755 mmHg 63%
    23:00 +8°C° 0 mm 2 mps 755 mmHg 65%

    27 March, Wednesday

    Time Temperature Precipitation Wind Pressure Humidity
    00:00 +7°C° 0 mm 2 mps 755 mmHg 68%
    01:00 +7°C° 0 mm 2 mps 755 mmHg 70%
    02:00 +6°C° 0 mm 2 mps 755 mmHg 73%
    03:00 +6°C° 0 mm 2 mps 755 mmHg 75%
    04:00 +5°C° 0 mm 2 mps 756 mmHg 77%
    05:00 +5°C° 0 mm 2 mps 756 mmHg 79%
    06:00 +5°C° 0 mm 2 mps 756 mmHg 81%
    07:00 +6°C° 0 mm 2 mps 756 mmHg 76%
    08:00 +7°C° 0 mm 2 mps 757 mmHg 71%
    09:00 +9°C° 0 mm 3 mps 757 mmHg 66%
    10:00 +10°C° 0 mm 3 mps 757 mmHg 66%
    11:00 +10°C° 0 mm 4 mps 757 mmHg 67%
    12:00 +11°C° 0 mm 4 mps 757 mmHg 68%
    13:00 +10°C° 0 mm 5 mps 757 mmHg 63%
    14:00 +12°C° 0 mm 5 mps 758 mmHg 58%
    15:00 +11°C° 0 mm 6 mps 758 mmHg 53%
    16:00 +10°C° 0 mm 5 mps 758 mmHg 52%
    17:00 +9°C° 0 mm 5 mps 759 mmHg 50%
    18:00 +7°C° 0 mm 5 mps 760 mmHg 48%
    19:00 +6°C° 0 mm 5 mps 760 mmHg 52%
    20:00 +5°C° 0 mm 4 mps 761 mmHg 56%
    21:00 +4°C° 0 mm 3 mps 762 mmHg 60%
    22:00 +3°C° 0 mm 3 mps 763 mmHg 58%
    23:00 +2°C° 0 mm 3 mps 763 mmHg 57%

    28 March, Thursday

    Time Temperature Precipitation Wind Pressure Humidity
    00:00 +2°C° 0 mm 2 mps 763 mmHg 55%
    01:00 +2°C° 0 mm 2 mps 764 mmHg 56%
    02:00 +2°C° 0 mm 2 mps 764 mmHg 58%
    03:00 +1°C° 0 mm 2 mps 764 mmHg 59%
    04:00 +2°C° 0 mm 1 mps 764 mmHg 59%
    05:00 +1°C° 0 mm 1 mps 765 mmHg 59%
    06:00 +1°C° 0 mm 1 mps 765 mmHg 59%
    07:00 +3°C° 0 mm 1 mps 765 mmHg 53%
    08:00 +4°C° 0 mm 1 mps 765 mmHg 47%
    09:00 +6°C° 0 mm 1 mps 766 mmHg 41%
    10:00 +7°C° 0 mm 1 mps 765 mmHg 40%
    11:00 +7°C° 0 mm 2 mps 765 mmHg 38%
    12:00 +7°C° 0 mm 3 mps 765 mmHg 36%
    13:00 +8°C° 0 mm 3 mps 765 mmHg 36%
    14:00 +8°C° 0 mm 3 mps 764 mmHg 36%
    15:00 +9°C° 0 mm 3 mps 764 mmHg 36%
    16:00 +8°C° 0 mm 3 mps 764 mmHg 41%
    17:00 +7°C° 0 mm 3 mps 764 mmHg 45%
    18:00 +7°C° 0 mm 3 mps 764 mmHg 49%
    19:00 +4°C° 0 mm 3 mps 765 mmHg 52%
    20:00 +3°C° 0 mm 3 mps 765 mmHg 55%
    21:00 +2°C° 0 mm 3 mps 765 mmHg 58%
    22:00 +1°C° 0 mm 3 mps 765 mmHg 58%
    23:00 +2°C° 0 mm 2 mps 765 mmHg 59%

    29 March, Friday

    Time Temperature Precipitation Wind Pressure Humidity
    00:00 +1°C° 0 mm 2 mps 765 mmHg 60%
    01:00 +1°C° 0 mm 2 mps 765 mmHg 61%
    02:00 +1°C° 0 mm 2 mps 765 mmHg 62%
    03:00 -1°C° 0 mm 2 mps 765 mmHg 64%
    04:00 -1°C° 0 mm 2 mps 765 mmHg 65%
    05:00 -1°C° 0 mm 2 mps 765 mmHg 66%
    06:00 +1°C° 0 mm 1 mps 765 mmHg 67%
    07:00 +3°C° 0 mm 1 mps 765 mmHg 61%
    08:00 +4°C° 0 mm 1 mps 765 mmHg 56%
    09:00 +6°C° 0 mm 1 mps 765 mmHg 50%
    10:00 +7°C° 0 mm 1 mps 764 mmHg 46%
    11:00 +7°C° 0 mm 2 mps 764 mmHg 42%
    12:00 +8°C° 0 mm 2 mps 763 mmHg 38%
    13:00 +9°C° 0 mm 2 mps 763 mmHg 37%
    14:00 +10°C° 0 mm 2 mps 763 mmHg 37%
    15:00 +10°C° 0 mm 3 mps 762 mmHg 36%
    16:00 +10°C° 0 mm 2 mps 762 mmHg 41%
    17:00 +9°C° 0 mm 2 mps 762 mmHg 45%
    18:00 +9°C° 0 mm 2 mps 762 mmHg 50%
    19:00 +8°C° 0 mm 1 mps 762 mmHg 52%
    20:00 +7°C° 0 mm 1 mps 762 mmHg 55%
    21:00 +6°C° 0 mm 1 mps 763 mmHg 58%
    22:00 +5°C° 0 mm 1 mps 763 mmHg 59%
    23:00 +5°C° 0 mm 1 mps 762 mmHg 60%
    Show more